RH
28 33 32 30 39 51 59 37 33 28 28 30 42 56 59 70 85 88 100 100 100 98 80 70 74 84 74 79 74 51 16 13 18 26 30 38 41 43 46 45 45 49 46 39
50 60 44 50 49 54 51 37 31 34 50 58 74 87 86 100 100 100 100 98 87 74 71 76 89 68 56 33 12 13 16 26 30 36 38 45 50 47 46 43 46 45 39 21
58 36 64 60 54 65 91 61 51 71 83 88 99 99 100 100 100 94 80 94 93 84 71 66 44 27 13 12 17 24 32 36 39 38 44 50 50 47 45 39 33 27 17 15
90 83 71 53 69 99 92 87 94 93 92 100 99 94 86 72 81 86 80 59 47 35 23 18 13 13 17 27 31 36 46 44 47 54 53 54 57 49 41 47 33 17 15 14
39 93 100 100 79 75 71 92 92 87 89 84 78 72 70 60 58 58 42 19 16 14 13 13 17 27 35 37 44 50 48 53 52 60 58 52 53 52 55 29 17 15 14 14
15 16 48 90 100 100 100 88 94 87 76 64 46 39 41 34 22 16 15 14 13 14 18 27 38 40 40 47 51 52 56 53 63 60 61 60 64 58 22 17 16 15 13 12
29 24 15 14 20 35 44 37 25 17 17 17 16 16 15 15 15 16 16 19 24 29 35 40 40 43 52 57 58 57 59 66 63 65 63 65 41 19 17 16 15 13 13 13
33 29 28 19 17 18 18 17 16 16 16 17 18 16 17 19 22 28 34 37 40 42 41 47 52 58 60 61 61 65 68 61 65 63 54 24 19 17 16 15 13 13 12 11
36 36 33 35 36 36 37 37 36 37 36 39 36 37 35 37 40 41 42 44 43 47 52 54 60 68 69 64 59 62 61 61 59 38 21 19 17 15 14 13 13 12 10 10
45 42 43 41 40 33 34 35 37 39 43 46 43 46 51 52 47 46 45 46 48 50 53 63 78 78 66 62 59 60 51 45 27 22 18 17 15 14 13 13 12 10 10 11
71 56 58 54 47 46 44 40 37 37 39 40 42 42 52 52 62 68 71 74 76 73 75 78 72 72 65 58 58 44 43 28 22 18 17 15 14 13 13 12 10 10 12 10
91 74 66 68 57 57 49 50 40 42 44 44 42 47 47 56 66 68 73 82 88 87 76 76 83 71 58 59 41 50 33 20 18 16 16 14 12 12 12 10 10 13 11 8
100 97 80 71 67 66 62 57 50 47 42 43 44 46 47 46 52 58 67 78 80 78 95 92 75 59 58 40 46 26 20 18 16 17 13 12 12 12 11 11 14 12 9 6
63 99 99 83 76 68 73 76 70 62 56 54 54 57 52 49 49 53 63 73 89 100 97 76 60 57 38 31 23 19 18 17 17 13 12 12 12 11 11 14 13 9 7 7
48 48 56 75 78 73 67 80 91 89 73 70 67 64 60 57 53 51 66 88 100 84 69 66 55 35 24 20 19 18 18 17 13 12 12 13 12 12 14 14 10 8 7 9
52 49 92 84 73 80 82 100 97 100 99 79 79 76 66 60 59 55 66 67 62 70 71 56 27 22 20 20 20 20 18 14 13 13 13 13 11 15 16 12 9 7 9 10
63 60 64 89 95 93 85 90 97 100 100 94 90 79 67 60 57 56 54 70 77 68 41 26 20 21 21 21 22 19 15 14 14 13 14 12 13 17 14 10 8 9 11 12
58 58 56 63 71 64 60 78 99 98 100 100 93 75 64 49 48 54 46 56 55 31 25 22 22 23 23 24 22 18 16 14 14 14 12 12 18 16 11 10 8 10 12 14
58 54 65 77 83 72 62 88 86 85 98 100 91 64 51 42 46 41 34 36 29 26 23 22 25 26 27 26 24 17 14 14 14 14 12 16 19 14 10 8 9 12 13 14
56 50 52 60 83 84 69 71 90 86 85 83 70 60 46 44 39 32 29 29 28 24 24 26 28 30 28 29 21 16 14 15 15 13 15 19 17 13 10 8 10 12 12 14
57 55 53 65 60 53 73 73 87 74 84 77 71 58 49 44 35 30 30 30 26 25 28 30 33 32 34 28 18 14 14 15 15 14 18 20 17 13 11 8 11 12 12 11
62 55 58 64 51 54 73 87 62 68 83 84 69 51 47 44 36 32 31 28 27 29 34 37 36 37 36 23 16 14 15 16 15 15 20 22 19 14 12 8 11 12 12 11
69 54 53 58 53 63 96 81 77 68 87 84 55 48 44 39 33 31 29 30 30 33 38 41 41 39 35 21 15 15 16 16 14 15 22 23 22 16 12 8 11 13 13 13
73 59 55 58 59 76 90 85 81 72 82 64 46 38 37 33 31 31 32 34 34 38 42 44 42 40 33 19 15 15 16 17 14 16 24 24 23 20 13 10 11 13 14 15
70 58 48 50 69 86 79 79 69 74 76 52 41 32 33 34 34 37 38 40 41 44 46 46 45 43 28 16 15 15 15 16 15 17 26 24 23 23 17 11 11 15 16 17
68 55 54 56 75 75 73 82 70 82 69 57 46 43 42 45 47 46 47 49 48 51 49 48 48 40 22 16 16 16 15 16 17 21 26 26 24 24 18 14 9 14 15 17
Wind_Speed
49 54 55 51 51 51 49 50 49 49 48 46 46 48 47 47 48 53 56 60 64 68 72 76 78 80 82 81 81 83 82 81 82 83 82 82 85 90 93 96 99 101 106 109
40 43 43 44 45 44 45 47 46 45 45 45 45 45 43 47 50 55 59 63 68 73 74 76 80 80 80 81 78 78 80 80 81 79 82 87 91 95 98 102 104 107 109 112
35 34 37 36 38 39 42 43 40 41 43 42 44 45 48 50 55 62 65 67 70 75 77 76 75 74 74 76 77 78 78 77 79 83 88 91 95 99 105 106 108 111 114 115
24 27 32 34 35 40 41 38 41 45 46 47 48 47 50 56 59 62 64 66 65 67 64 66 67 69 72 75 76 74 75 79 83 86 90 96 99 106 108 112 116 118 119 120
27 32 37 38 34 39 42 43 45 47 52 53 52 50 53 57 57 56 58 58 57 61 64 65 66 69 71 70 70 73 78 82 86 90 95 99 106 108 112 115 117 121 122 121
18 21 28 31 37 40 42 42 43 44 45 47 49 48 48 49 51 51 53 56 58 60 62 64 65 66 64 68 72 77 81 86 89 94 99 105 107 111 114 117 121 124 119 113
16 21 23 22 23 27 32 36 39 40 39 39 40 43 44 47 47 49 51 55 58 60 61 59 59 62 65 70 75 80 84 88 93 98 103 105 109 112 115 118 121 116 110 108
14 15 18 20 20 22 25 30 33 36 37 39 40 42 44 44 46 49 52 55 56 54 54 56 61 64 69 73 77 82 87 92 96 101 102 106 110 114 118 119 113 107 104 103
10 11 14 16 19 20 23 27 30 34 36 37 40 41 42 44 46 47 50 51 52 53 56 59 63 66 70 75 80 85 90 94 96 100 104 109 112 116 118 111 105 102 101 97
16 12 14 17 20 20 22 24 27 29 31 36 37 38 39 40 43 47 50 52 54 56 58 61 64 69 73 80 85 88 91 93 98 103 106 110 114 114 108 103 100 99 95 90
23 18 16 18 23 23 23 24 26 27 30 34 37 38 39 43 46 49 52 54 56 58 60 63 67 71 77 84 86 87 91 96 101 104 108 112 112 106 101 99 98 94 89 84
28 24 20 20 22 25 24 26 26 27 30 33 36 40 43 45 47 50 52 55 57 60 63 66 68 74 82 84 84 89 95 98 102 106 110 109 103 99 97 97 93 88 84 78
31 29 24 23 25 28 29 28 28 29 31 33 36 41 44 47 48 51 54 56 58 61 62 66 74 80 81 82 87 92 95 100 104 107 107 101 99 97 96 92 89 83 76 73
29 30 29 28 26 27 30 32 31 33 34 36 39 43 47 50 51 52 53 55 57 59 66 73 76 77 79 83 88 92 97 101 104 104 100 99 96 95 91 87 82 75 71 69
28 29 26 28 29 30 32 33 35 37 38 40 42 45 50 53 55 55 56 58 61 67 69 70 73 75 79 85 88 94 98 102 103 100 99 96 95 91 87 82 77 70 68 63
29 24 27 29 28 30 34 38 40 41 41 43 45 47 52 57 58 58 57 59 59 64 68 69 70 76 81 85 91 96 100 103 101 99 97 95 91 87 82 77 72 68 63 57
28 29 28 29 29 31 34 39 41 42 43 45 46 50 55 58 58 56 56 58 62 65 65 67 72 77 83 88 93 98 102 103 100 98 94 91 87 81 78 72 67 64 58 56
31 31 31 31 32 35 34 35 37 40 44 45 48 52 56 57 56 54 56 59 61 60 64 69 75 80 86 91 95 100 103 100 98 94 91 87 81 77 73 68 64 59 54 53
33 33 33 32 33 36 35 36 37 38 41 44 48 53 55 56 54 54 57 56 57 62 68 73 78 83 88 93 98 102 101 97 95 91 87 83 78 74 69 64 61 55 52 49
35 34 34 34 34 37 37 38 39 39 41 45 49 53 56 56 54 55 53 56 61 66 71 75 80 85 91 95 99 100 98 95 91 87 83 78 74 70 67 62 58 52 49 45
36 37 37 37 37 34 37 37 39 41 42 46 51 54 55 54 54 54 55 59 63 68 72 77 82 87 93 97 99 98 94 92 86 82 78 75 72 69 65 61 56 52 50 46
39 38 37 38 37 34 37 37 40 41 44 46 49 53 53 52 53 53 57 59 64 69 74 79 85 89 93 97 97 95 91 88 82 78 75 73 71 68 64 60 56 52 51 48
38 38 37 38 37 37 35 38 41 43 42 45 49 52 50 50 51 55 56 62 66 70 75 80 85 90 94 96 95 93 88 84 79 75 73 71 70 67 64 60 56 52 51 50
38 38 38 38 37 34 36 39 40 40 42 44 47 48 48 49 53 55 59 63 68 72 76 82 85 89 93 95 93 90 86 80 76 73 71 69 68 68 64 59 56 52 51 50
41 39 38 36 36 38 39 38 38 38 40 42 44 46 47 50 54 57 61 65 69 73 77 81 86 90 93 93 92 87 83 77 73 72 69 67 66 66 65 60 54 50 49 48
39 36 36 35 38 39 38 37 36 37 39 41 43 45 47 51 55 59 62 66 70 74 78 81 86 90 91 93 90 85 81 75 71 70 68 67 66 65 62 59 53 48 46 45
Wind_Direction
250 253 256 259 259 262 266 267 270 276 278 280 281 284 286 286 290 291 291 292 294 297 296 294 297 300 303 300 301 300 301 302 307 308 309 309 312 313 312 312 311 309 310 311
246 247 255 257 260 263 263 267 273 272 276 277 280 284 283 287 289 287 288 289 289 291 294 295 297 299 300 299 301 303 308 309 309 310 311 313 313 313 313 312 311 312 312 312
248 253 254 256 257 257 260 266 267 272 278 281 282 283 283 282 283 285 289 289 290 290 293 296 298 301 301 304 308 310 310 312 312 312 314 313 313 313 313 313 314 314 315 315
259 258 259 261 258 256 260 266 269 271 272 275 281 284 284 284 284 286 289 290 294 296 298 298 302 304 308 309 309 312 314 314 315 315 314 314 314 314 314 316 316 316 317 315
265 260 260 260 267 268 270 268 274 278 280 283 286 286 284 285 288 289 291 296 297 296 301 305 308 309 309 309 313 314 314 315 315 315 314 314 315 316 317 317 317 317 317 315
261 260 259 262 261 266 271 273 274 278 281 284 286 289 289 290 293 296 298 298 300 304 307 311 311 308 310 314 314 316 315 315 315 315 316 316 317 317 317 318 318 317 316 316
259 266 270 273 274 272 276 279 283 285 288 290 292 291 294 296 299 300 301 305 309 312 314 312 310 313 316 316 317 316 316 316 317 316 316 316 316 317 318 318 317 317 317 316
271 283 278 277 282 284 281 284 288 292 294 296 295 295 300 302 305 308 312 313 316 315 315 316 316 317 318 318 318 317 318 317 315 316 316 317 319 319 319 318 319 318 317 317
263 289 291 286 285 288 293 291 293 293 292 294 295 299 302 308 310 313 314 315 317 319 319 318 319 319 318 319 320 319 317 316 316 317 319 319 320 320 320 320 320 319 319 319
255 270 287 292 292 291 297 303 304 307 305 302 305 307 311 310 310 311 312 316 317 317 317 317 318 318 319 321 320 318 318 318 320 320 320 321 321 321 321 322 321 321 321 322
253 259 273 287 296 303 309 314 314 310 308 313 315 315 314 314 316 314 314 314 315 315 317 317 319 320 320 320 319 319 320 321 321 322 322 322 323 323 324 324 324 324 325 325
249 257 269 285 292 296 298 306 314 316 321 321 321 320 321 317 313 313 313 314 316 317 317 319 320 319 320 321 322 321 322 322 323 324 325 324 324 326 327 327 327 328 328 327
252 256 267 279 286 290 296 302 306 314 321 323 323 325 327 322 317 316 315 313 314 317 319 318 318 320 322 324 322 322 323 325 325 327 326 327 329 330 329 330 330 330 330 330
248 257 268 274 277 286 295 298 304 308 314 318 322 327 326 327 323 319 316 318 319 318 316 316 321 324 325 323 323 325 326 327 329 328 330 332 332 332 332 331 331 333 333 334
258 259 265 269 275 283 291 296 299 302 308 313 320 325 328 327 325 323 319 318 315 315 319 323 325 325 324 324 326 327 329 331 332 333 334 334 334 334 334 334 335 336 337 336
264 264 271 268 274 284 291 298 304 303 303 310 319 325 327 327 326 326 321 320 322 325 325 327 327 326 326 329 329 331 333 335 336 336 337 336 336 336 336 337 338 340 339 339
260 261 264 271 278 282 289 296 303 305 305 309 316 322 326 326 324 324 323 323 325 325 327 327 327 328 330 330 333 334 337 338 338 339 337 338 338 339 339 340 342 342 343 344
263 268 272 274 280 285 288 292 299 305 308 308 314 321 324 324 324 323 324 325 325 327 328 330 331 333 332 334 335 339 339 339 339 340 339 340 342 342 343 344 345 345 348 348
266 270 272 272 276 282 290 293 298 304 307 308 312 318 321 325 325 324 326 327 328 330 332 333 334 335 335 335 339 340 341 341 342 341 341 343 345 345 346 348 348 349 352 352
264 271 274 275 274 281 288 295 300 305 307 309 312 317 323 326 327 327 328 329 332 334 335 336 336 336 337 340 340 341 342 342 343 342 345 346 348 348 350 351 351 352 355 356
263 270 274 274 277 283 286 294 300 305 308 311 316 320 325 325 326 329 329 333 334 335 337 337 337 338 339 340 342 343 343 344 344 345 347 349 351 352 353 354 354 354 356 359
260 268 271 275 281 283 286 294 304 309 309 313 317 321 323 324 327 327 331 333 335 338 339 338 339 339 340 341 344 345 345 345 346 347 350 352 354 355 356 357 358 357 359 1
261 267 272 276 281 287 291 296 304 310 311 314 319 321 322 325 326 329 332 335 337 339 339 339 340 340 340 342 345 346 346 346 347 350 353 356 357 357 359 360 0 0 1 2
259 265 269 276 281 286 291 297 302 308 308 314 320 321 323 326 327 332 334 336 338 339 339 340 339 340 341 344 346 347 348 348 349 353 355 358 1 0 1 3 2 2 5 5
258 265 272 277 280 285 292 295 303 305 310 317 322 323 326 329 332 333 334 337 338 340 339 340 340 340 342 345 347 347 350 351 352 355 357 360 4 5 3 4 5 5 6 8
259 266 270 278 283 286 290 296 301 305 312 318 324 327 331 334 335 334 335 337 339 340 339 340 340 341 342 346 348 348 352 353 356 357 359 2 6 7 8 7 7 7 8 11